STARLINK-5307 (55658 NORAD) Tracking and Keplerian Element Data

This shows tracking and keplerian element data for the satellite.

Feedback or suggestion? Click here.




ElementValue
Catalog55658
NameSTARLINK-5307
Epoch Orbit130
Epoch Day62.91667824
Epoch Year2023
RAAN110.1937
Inclination70.0001
Eccentricity0.0003487
Argument of Perigee270.6937
Mean Anonmoly330.2515
Mean Motion15.75068022
Decay Rate-0.00972939
L11 55658U 23021AG 23062.91667824 -.00972939 00000+0 -72873-2 0 9992
L22 55658 70.0001 110.1937 0003487 270.6937 330.2515 15.75068022 1306



Live tracking and technical data element details for STARLINK-5307 (NORAD 55658). STARLINK-5307 can be tracked NOW for your location showing map with azimuth and elevation plus other details from your city location.







IsCatalogInMostPopularTable: catalog: 55658, numindb: 2
Update: records affected: 1



GetName: 55658 STARLINK-5307

Hit Count: updated at: Wed, 22 Mar 2023 15:30:26 GMT